Location: Baili�vre
(50.0696°N, 4.2409°E)
Time: 07:56:46
(UTC+00:00)

SPOT 1/Viking Rocket - Pass Details

Date: 08 August 2020
Orbit: 776 x 795 km, 98.5° (Epoch: 26 September)

Event Time Altitude Azimuth Distance (km) Brightness Sun altitude
Exits shadow 20:39:52 14° 156° (SSE) 2,059 5.2 -12.2°
Maximum altitude 20:44:18 75° 72° (ENE) 826 3.6 -12.7°
Drops below altitude 10° 20:49:33 10° 348° (NNW) 2,377 7.0 -13.3°
Sets 20:51:53 0° 347° (NNW) 3,311 7.9 -13.5°
